Location: Corcelles
(46.1547°N, 4.7234°E)
Time: 08:24:33
(UTC+00:00)

CBERS-1 - Pass Details

Date: 14 July 2020
Orbit: 769 x 777 km, 98.6° (Epoch: 14 August)

Event Time Altitude Azimuth Distance (km) Brightness Sun altitude
Rises 02:31:42 0° 9° (N) 3,269 8.4 -12.7°
Reaches altitude 10° 02:34:04 10° 5° (N) 2,337 7.4 -12.4°
Maximum altitude 02:39:03 52° 290° (WNW) 964 4.4 -11.8°
Enters shadow 02:43:04 15° 219° (SW) 1,967 5.4 -11.4°
